Tracking 29892 objects as of 21-Nov-2024
HD Live streaming from Space Station
objects crossing your sky now

STARLINK-1843

Track STARLINK-1843 now!
10-day predictions
STARLINK-1843 is classified as:


NORAD ID: 47133
Int'l Code: 2020-088M
Perigee: 553.0 km
Apogee: 555.5 km
Inclination: 53.1 °
Period: 95.6 minutes
Semi major axis: 6925 km
RCS: Unknown
Launch date: November 25, 2020
Source: United States (US)
Launch site: AIR FORCE EASTERN TEST RANGE (AFETR)
Your satellite tracking list
Your tracking list is empty




NASA's NSSDC Master Catalog

Two Line Element Set (TLE):
1 47133U 20088M   24325.83644155  .00018170  00000-0  12344-2 0  9991
2 47133  53.0553 258.8274 0001853  89.3745 270.7456 15.06435359220556
Source of the keplerian elements: AFSPC